Location: Rock Island IL
(41.5000°N, 90.5500°W)
Time: 18:20:39
(UTC-06:00)

OTV 5 (USA 277) - Visible Passes

Search period start: 24 November 2017 00:00
Search period end: 04 December 2017 00:00
Orbit: 404 x 417 km, 43.0° (Epoch: 07 September)

Date Brightness Start Highest point End Pass type
(mag) Time Alt. Az. Time Alt. Az. Time Alt. Az.
30 Nov ? 18:32:26 10° SSW 18:33:31 15° S 18:33:31 15° S visible
01 Dec ? 17:42:24 10° S 17:44:01 13° SE 17:45:03 12° SE visible
01 Dec ? 19:17:33 10° WSW 19:17:49 12° WSW 19:17:49 12° WSW visible
02 Dec ? 18:26:40 10° SW 18:29:16 36° S 18:29:16 36° S visible
03 Dec ? 17:35:56 10° SSW 17:38:52 28° SSE 17:40:41 17° ESE visible
03 Dec ? 19:12:37 10° WSW 19:13:27 16° WSW 19:13:27 16° WSW visible
